Weather History for Wrangell, AK

Change the Weather History Date:

Wednesday, October 9, 2013

  Actual Average Record
Temperature  
Mean Temperature 48 °F -  
Max Temperature 50 °F 52 °F 60 °F (1996)
Min Temperature 46 °F 40 °F 24 °F (1968)
Degree Days  
Heating Degree Days 17    
Moisture  
Dew Point 40 °F    
Average Humidity 73    
Maximum Humidity 87    
Minimum Humidity 62    
Precipitation  
Precipitation 0.99 in - - ()
Sea Level Pressure  
Sea Level Pressure 29.67 in    
Wind  
Wind Speed 15 mph (SSW)    
Max Wind Speed 26 mph    
Max Gust Speed 37 mph    
Visibility 9 miles    
Events      
Averages and records for this station are not official NWS values.
T = Trace of Precipitation, MM = Missing Value Source: NWS Daily Summary

Daily Weather History Graph

Daily Weather History Graph

Search for Another Location

Airport:

Trip Planner

Search our weather history database for the weather conditions in past years. The results will help you decide how hot, cold, wet, or windy it might be!

Date:

Astronomy

Oct. 09, 2013 Rise Set
Actual Time 7:10 AM AKDT 6:02 PM AKDT
Civil Twilight 6:32 AM AKDT 6:39 PM AKDT
Nautical Twilight 5:48 AM AKDT 7:23 PM AKDT
Astronomical Twilight 5:04 AM AKDT 8:07 PM AKDT
Moon 12:59 PM AKDT (10/9) 8:57 PM AKDT (10/9)
Length of Visible Light 12h 07m
Length of Day
10h 52m
Waxing Crescent, 27% of the Moon is Illuminated
Oct 9
Waxing Crescent
Oct 11
First Quarter
Oct 18
Full
Oct 26
Last Quarter
Nov 3
New

Hourly Weather History & Observations

Time (AKDT) Temp. Windchill Dew Point Humidity Pressure Visibility Wind Dir Wind Speed Gust Speed Precip Events Conditions
12:16 AM 48.2 °F - 41.0 °F 76% 29.83 in 9.0 mi ESE 19.6 mph 28.8 mph 0.04 in   Overcast
12:36 AM 48.2 °F - 41.0 °F 76% 29.80 in 10.0 mi ESE 21.9 mph 29.9 mph 0.06 in   Overcast
12:56 AM 48.2 °F - 41.0 °F 76% 29.78 in 10.0 mi ESE 20.7 mph 31.1 mph 0.10 in   Overcast
1:16 AM 48.2 °F - 39.2 °F 71% 29.77 in 10.0 mi ESE 20.7 mph 27.6 mph 0.04 in   Overcast
1:36 AM 48.2 °F - 41.0 °F 76% 29.76 in 10.0 mi ESE 23.0 mph 29.9 mph 0.07 in   Overcast
1:56 AM 48.2 °F - 41.0 °F 76% 29.72 in 9.0 mi ESE 24.2 mph 31.1 mph 0.10 in   Overcast
2:16 AM 48.2 °F - 41.0 °F 76% 29.69 in 10.0 mi ESE 21.9 mph 31.1 mph 0.02 in   Overcast
2:36 AM 48.2 °F - 41.0 °F 76% 29.67 in 10.0 mi ESE 23.0 mph 33.4 mph 0.03 in   Overcast
2:56 AM 48.2 °F - 41.0 °F 76% 29.64 in 10.0 mi ESE 23.0 mph 31.1 mph 0.05 in   Overcast
3:16 AM 48.2 °F - 41.0 °F 76% 29.61 in 9.0 mi ESE 26.5 mph 31.1 mph 0.01 in   Overcast
3:36 AM 48.2 °F - 41.0 °F 76% 29.58 in 10.0 mi ESE 25.3 mph 34.5 mph 0.02 in   Overcast
3:56 AM 48.2 °F - 42.8 °F 82% 29.57 in 10.0 mi ESE 23.0 mph 36.8 mph 0.04 in   Overcast
4:16 AM 48.2 °F - 42.8 °F 82% 29.55 in 8.0 mi ESE 26.5 mph 36.8 mph 0.05 in   Overcast
4:36 AM 48.2 °F - 42.8 °F 82% 29.53 in 7.0 mi ESE 26.5 mph 34.5 mph 0.10 in   Overcast
4:56 AM 48.2 °F - 42.8 °F 82% 29.51 in 7.0 mi ESE 26.5 mph 32.2 mph 0.14 in   Overcast
5:16 AM 48.2 °F - 42.8 °F 82% 29.50 in 6.0 mi ESE 25.3 mph 33.4 mph 0.04 in   Overcast
5:36 AM 48.2 °F - 42.8 °F 82% 29.50 in 7.0 mi ESE 21.9 mph 29.9 mph 0.10 in   Overcast
5:56 AM 48.2 °F - 42.8 °F 82% 29.49 in 7.0 mi SE 19.6 mph 31.1 mph 0.15 in   Overcast
6:16 AM 48.2 °F - 42.8 °F 82% 29.48 in 7.0 mi SE 17.3 mph 24.2 mph 0.07 in   Overcast
6:36 AM 48.2 °F - 42.8 °F 82% 29.49 in 7.0 mi South 10.4 mph 24.2 mph 0.15 in   Overcast
6:56 AM 48.2 °F - 44.6 °F 87% 29.50 in 7.0 mi South 5.8 mph - 0.20 in   Overcast
7:16 AM 50.0 °F - 44.6 °F 82% 29.51 in 7.0 mi SW 10.4 mph 19.6 mph 0.03 in   Overcast
7:36 AM 50.0 °F - 44.6 °F 82% 29.52 in 7.0 mi West 11.5 mph 17.3 mph 0.09 in   Overcast
7:56 AM 48.2 °F - 42.8 °F 82% 29.53 in 7.0 mi West 18.4 mph 27.6 mph 0.15 in   Overcast
8:16 AM 48.2 °F - 42.8 °F 82% 29.56 in 7.0 mi West 10.4 mph 25.3 mph N/A   Overcast
8:36 AM 50.0 °F - 39.2 °F 66% 29.59 in 7.0 mi West 10.4 mph - N/A   Overcast
8:56 AM 48.2 °F - 41.0 °F 76% 29.60 in 10.0 mi West 5.8 mph - N/A   Mostly Cloudy
9:16 AM 48.2 °F - 39.2 °F 71% 29.61 in 10.0 mi SW 6.9 mph - N/A   Mostly Cloudy
9:36 AM 50.0 °F - 39.2 °F 66% 29.63 in 10.0 mi WSW 10.4 mph - N/A   Mostly Cloudy
9:56 AM 48.2 °F - 39.2 °F 71% 29.64 in 10.0 mi West 11.5 mph 16.1 mph N/A   Overcast
10:16 AM 48.2 °F - 37.4 °F 66% 29.65 in 10.0 mi WSW 8.1 mph - N/A   Overcast
10:36 AM 48.2 °F - 37.4 °F 66% 29.65 in 10.0 mi WSW 9.2 mph - N/A   Overcast
10:56 AM 48.2 °F - 39.2 °F 71% 29.66 in 10.0 mi WSW 4.6 mph - N/A   Mostly Cloudy
11:16 AM 48.2 °F - 39.2 °F 71% 29.65 in 10.0 mi Calm Calm - N/A   Mostly Cloudy
11:36 AM 48.2 °F - 37.4 °F 66% 29.66 in 10.0 mi ESE 4.6 mph - N/A   Mostly Cloudy
11:56 AM 48.2 °F - 39.2 °F 71% 29.67 in 10.0 mi Calm Calm - N/A   Mostly Cloudy
12:16 PM 48.2 °F - 37.4 °F 66% 29.67 in 10.0 mi South 5.8 mph - N/A   Mostly Cloudy
12:36 PM 48.2 °F - 37.4 °F 66% 29.68 in 10.0 mi WSW 9.2 mph - N/A   Mostly Cloudy
12:56 PM 48.2 °F - 37.4 °F 66% 29.68 in 10.0 mi SSW 4.6 mph - 0.01 in   Overcast
1:16 PM 48.2 °F - 37.4 °F 66% 29.67 in 10.0 mi South 13.8 mph 24.2 mph N/A   Overcast
1:36 PM 48.2 °F - 37.4 °F 66% 29.68 in 10.0 mi SSW 9.2 mph 16.1 mph N/A   Overcast
1:56 PM 48.2 °F - 37.4 °F 66% 29.68 in 10.0 mi SSW 8.1 mph - N/A   Overcast
2:16 PM 48.2 °F - 37.4 °F 66% 29.68 in 10.0 mi South 9.2 mph - N/A   Overcast
2:36 PM 50.0 °F - 37.4 °F 62% 29.68 in 10.0 mi South 10.4 mph 21.9 mph N/A   Overcast
2:56 PM 50.0 °F - 37.4 °F 62% 29.68 in 10.0 mi South 13.8 mph 18.4 mph N/A   Overcast
3:16 PM 48.2 °F - 37.4 °F 66% 29.68 in 10.0 mi South 8.1 mph - N/A   Overcast
3:36 PM 48.2 °F - 37.4 °F 66% 29.69 in 10.0 mi WSW 5.8 mph - N/A   Overcast
3:56 PM 46.4 °F 41.1 °F 39.2 °F 76% 29.69 in 7.0 mi WSW 11.5 mph - 0.03 in   Overcast
4:16 PM 48.2 °F - 39.2 °F 71% 29.70 in 7.0 mi South 4.6 mph - 0.01 in   Overcast
4:36 PM 48.2 °F - 39.2 °F 71% 29.69 in 7.0 mi SSW 4.6 mph - 0.02 in   Overcast
4:56 PM 48.2 °F - 39.2 °F 71% 29.70 in 7.0 mi SW 4.6 mph - 0.02 in   Overcast
5:16 PM 46.4 °F 44.3 °F 39.2 °F 76% 29.70 in 7.0 mi WSW 4.6 mph - N/A   Overcast
5:36 PM 46.4 °F 42.4 °F 39.2 °F 76% 29.71 in 7.0 mi WSW 8.1 mph - N/A   Overcast
5:56 PM 46.4 °F 42.9 °F 37.4 °F 71% 29.71 in 7.0 mi SSW 6.9 mph - N/A   Overcast
6:16 PM 46.4 °F 42.9 °F 37.4 °F 71% 29.72 in 7.0 mi SW 6.9 mph - N/A   Overcast
6:36 PM 46.4 °F 41.9 °F 37.4 °F 71% 29.72 in 7.0 mi WSW 9.2 mph - N/A   Overcast
6:56 PM 48.2 °F - 37.4 °F 66% 29.73 in 7.0 mi WSW 9.2 mph - N/A   Overcast
7:16 PM 48.2 °F - 37.4 °F 66% 29.74 in 10.0 mi SW 5.8 mph 16.1 mph N/A   Overcast
7:36 PM 46.4 °F 42.9 °F 37.4 °F 71% 29.75 in 10.0 mi SSW 6.9 mph - N/A   Overcast
7:56 PM 46.4 °F 44.3 °F 37.4 °F 71% 29.76 in 10.0 mi West 4.6 mph - N/A   Overcast
8:16 PM 46.4 °F 45.2 °F 37.4 °F 71% 29.76 in 10.0 mi West 3.5 mph - N/A   Overcast
8:36 PM 48.2 °F - 37.4 °F 66% 29.77 in 10.0 mi SSW 8.1 mph - N/A   Overcast
8:56 PM 46.4 °F 42.9 °F 37.4 °F 71% 29.77 in 10.0 mi SSW 6.9 mph - N/A   Overcast
9:16 PM 46.4 °F 42.9 °F 37.4 °F 71% 29.78 in 10.0 mi SW 6.9 mph - N/A   Overcast
9:36 PM 46.4 °F 44.3 °F 37.4 °F 71% 29.79 in 10.0 mi SW 4.6 mph - N/A   Overcast
9:56 PM 46.4 °F 45.2 °F 37.4 °F 71% 29.80 in 10.0 mi WSW 3.5 mph - N/A   Overcast
10:16 PM 46.4 °F 44.3 °F 37.4 °F 71% 29.80 in 10.0 mi SSW 4.6 mph - N/A   Overcast
10:36 PM 46.4 °F 42.9 °F 37.4 °F 71% 29.82 in 10.0 mi SW 6.9 mph - N/A   Overcast
10:56 PM 46.4 °F 44.3 °F 37.4 °F 71% 29.83 in 10.0 mi South 4.6 mph - N/A   Overcast
11:16 PM 46.4 °F - 39.2 °F 76% 29.84 in 10.0 mi Calm Calm - N/A   Overcast
11:36 PM 46.4 °F - 39.2 °F 76% 29.85 in 10.0 mi Calm Calm - N/A   Overcast
11:56 PM 46.4 °F 44.3 °F 39.2 °F 76% 29.85 in 10.0 mi ESE 4.6 mph - N/A   Overcast